Погода в Соргуне

Турция     39°48′54″N   35°11′27″E
темп.,
°C
ветер,
м/с
пор.,
м/с
влажн.,
%
обл.,
%
осадки,
мм/ч
давл.,
гПа
погр.,
м
9 мая, вс
вс900:00+12зюз229099 0.6 101325
03:00+11юз229378 1.4 101232
06:00+11зсз229428 1.1 101442
09:00+11сз588555 1.8 1016486
12:00+11св4573100 0.3 10191171
15:00+9св786947 0.5 1021892
18:00+9св665952 0.0 10211294
21:00+6св58768 0.0 1024471
10 мая, пн
пн1000:00+4св48755 0.0 1026315
03:00+2св34812 0.0 1026104
06:00+1ссв23905 0.0 1027101
09:00+5св45485 0.0 1025796
12:00+10св56390 0.0 10221160
15:00+12св66390 0.0 10191314
18:00+10ссв66470 0.0 10181081
21:00+6св59690 0.0 1021278
11 мая, вт
вт1100:00+3св33790 0.0 102159
03:00+2св22810 0.0 102116
06:00+2св22780 0.0 102117
09:00+8св11490 0.0 1018503
12:00+14сз12370 0.0 10151270
15:00+17зюз12310 0.0 10131731
18:00+17ююв01330 0.0 10121195
21:00+10всв33520 0.0 101427
12 мая, ср
ср1200:00+8всв22530 0.0 101413
03:00+7всв22560 0.0 101310
06:00+7в115954 0.0 101310
09:00+15ююз233715 0.0 1012390
12:00+20юз45295 0.0 10111488
15:00+23юз35250 0.0 10092331
18:00+22ююз24310 0.0 1009749
21:00+15в11380 0.0 100911
13 мая, чт
чт1300:00+13вюв22395 0.0 101011
03:00+13ююв1141100 0.0 101011
06:00+13ю2247100 0.0 101111
09:00+19ююз353744 0.0 1011424
12:00+24ююз45270 0.0 10101541
15:00+26юз56220 0.0 10092844
18:00+25юз35310 0.0 1009194
21:00+17зсз11370 0.0 101111